#datetime,building,power
2024-03-19T00:00:00,axn,34.29
2024-03-19T00:01:00,axn,32.87
2024-03-19T00:02:00,axn,34.59
2024-03-19T00:03:00,axn,34.77
2024-03-19T00:04:00,axn,33.54
2024-03-19T00:05:00,axn,33.16
2024-03-19T00:06:00,axn,34.34
2024-03-19T00:07:00,axn,35.25
2024-03-19T00:08:00,axn,34.78
2024-03-19T00:09:00,axn,33.42
2024-03-19T00:10:00,axn,32.79
2024-03-19T00:11:00,axn,34.50
2024-03-19T00:12:00,axn,34.00
2024-03-19T00:13:00,axn,34.59
2024-03-19T00:14:00,axn,32.91
2024-03-19T00:15:00,axn,34.77
2024-03-19T00:16:00,axn,33.55
2024-03-19T00:17:00,axn,34.85
2024-03-19T00:18:00,axn,34.53
2024-03-19T00:19:00,axn,34.37
2024-03-19T00:20:00,axn,36.01
2024-03-19T00:21:00,axn,33.01
2024-03-19T00:22:00,axn,34.51
2024-03-19T00:23:00,axn,33.21
2024-03-19T00:24:00,axn,34.23
2024-03-19T00:25:00,axn,34.19
2024-03-19T00:26:00,axn,33.85
2024-03-19T00:27:00,axn,33.17
2024-03-19T00:28:00,axn,34.83
2024-03-19T00:29:00,axn,35.02
2024-03-19T00:30:00,axn,32.60
2024-03-19T00:31:00,axn,33.20
2024-03-19T00:32:00,axn,32.90
2024-03-19T00:33:00,axn,33.91
2024-03-19T00:34:00,axn,33.62
2024-03-19T00:35:00,axn,34.22
2024-03-19T00:36:00,axn,34.17
2024-03-19T00:37:00,axn,34.16
2024-03-19T00:38:00,axn,34.52
2024-03-19T00:39:00,axn,33.80
2024-03-19T00:40:00,axn,33.93
2024-03-19T00:41:00,axn,34.20
2024-03-19T00:42:00,axn,44.60
2024-03-19T00:43:00,axn,45.69
2024-03-19T00:44:00,axn,47.61
2024-03-19T00:45:00,axn,48.07
2024-03-19T00:46:00,axn,38.29
2024-03-19T00:47:00,axn,35.52
2024-03-19T00:48:00,axn,36.51
2024-03-19T00:49:00,axn,35.68
2024-03-19T00:50:00,axn,38.32
2024-03-19T00:51:00,axn,37.46
2024-03-19T00:52:00,axn,35.43
2024-03-19T00:53:00,axn,34.83
2024-03-19T00:54:00,axn,36.40
2024-03-19T00:55:00,axn,36.52
2024-03-19T00:56:00,axn,35.64
2024-03-19T00:57:00,axn,37.06
2024-03-19T00:58:00,axn,35.39
2024-03-19T00:59:00,axn,35.76
2024-03-19T01:00:00,axn,36.33
2024-03-19T01:01:00,axn,36.98
2024-03-19T01:02:00,axn,35.56
2024-03-19T01:03:00,axn,34.72
2024-03-19T01:04:00,axn,35.40
2024-03-19T01:05:00,axn,36.39
2024-03-19T01:06:00,axn,35.55
2024-03-19T01:07:00,axn,34.74
2024-03-19T01:08:00,axn,51.36
2024-03-19T01:09:00,axn,49.14
2024-03-19T01:10:00,axn,50.87
2024-03-19T01:11:00,axn,48.45
2024-03-19T01:12:00,axn,49.63
2024-03-19T01:13:00,axn,34.59
2024-03-19T01:14:00,axn,35.83
2024-03-19T01:15:00,axn,34.59
2024-03-19T01:16:00,axn,36.27
2024-03-19T01:17:00,axn,36.15
2024-03-19T01:18:00,axn,30.86
2024-03-19T01:19:00,axn,28.82
2024-03-19T01:20:00,axn,27.53
2024-03-19T01:21:00,axn,27.45
2024-03-19T01:22:00,axn,27.49
2024-03-19T01:23:00,axn,27.54
2024-03-19T01:24:00,axn,27.34
2024-03-19T01:25:00,axn,27.33
2024-03-19T01:26:00,axn,27.38
2024-03-19T01:27:00,axn,28.38
2024-03-19T01:28:00,axn,27.50
2024-03-19T01:29:00,axn,27.83
2024-03-19T01:30:00,axn,27.74
2024-03-19T01:31:00,axn,27.79
2024-03-19T01:32:00,axn,27.74
2024-03-19T01:33:00,axn,27.70
2024-03-19T01:34:00,axn,27.72
2024-03-19T01:35:00,axn,27.79
2024-03-19T01:36:00,axn,28.05
2024-03-19T01:37:00,axn,28.20
2024-03-19T01:38:00,axn,27.72
2024-03-19T01:39:00,axn,28.04
2024-03-19T01:40:00,axn,27.79
2024-03-19T01:41:00,axn,27.84
2024-03-19T01:42:00,axn,27.72
2024-03-19T01:43:00,axn,27.56
2024-03-19T01:44:00,axn,28.17
2024-03-19T01:45:00,axn,27.63
2024-03-19T01:46:00,axn,27.83
2024-03-19T01:47:00,axn,28.03
2024-03-19T01:48:00,axn,27.78
2024-03-19T01:49:00,axn,27.59
2024-03-19T01:50:00,axn,27.72
2024-03-19T01:51:00,axn,27.88
2024-03-19T01:52:00,axn,27.85
2024-03-19T01:53:00,axn,27.85
2024-03-19T01:54:00,axn,27.98
2024-03-19T01:55:00,axn,27.91
2024-03-19T01:56:00,axn,27.95
2024-03-19T01:57:00,axn,28.00
2024-03-19T01:58:00,axn,28.17
2024-03-19T01:59:00,axn,28.45
2024-03-19T02:00:00,axn,33.02
2024-03-19T02:01:00,axn,27.95
2024-03-19T02:02:00,axn,27.74
2024-03-19T02:03:00,axn,28.16
2024-03-19T02:04:00,axn,27.77
2024-03-19T02:05:00,axn,28.30
2024-03-19T02:06:00,axn,27.54
2024-03-19T02:07:00,axn,27.54
2024-03-19T02:08:00,axn,28.01
2024-03-19T02:09:00,axn,27.90
2024-03-19T02:10:00,axn,27.57
2024-03-19T02:11:00,axn,28.16
2024-03-19T02:12:00,axn,28.02
2024-03-19T02:13:00,axn,27.91
2024-03-19T02:14:00,axn,27.95
2024-03-19T02:15:00,axn,28.16
2024-03-19T02:16:00,axn,27.88
2024-03-19T02:17:00,axn,27.87
2024-03-19T02:18:00,axn,27.80
2024-03-19T02:19:00,axn,27.53
2024-03-19T02:20:00,axn,27.59
2024-03-19T02:21:00,axn,28.02
2024-03-19T02:22:00,axn,27.58
2024-03-19T02:23:00,axn,27.56
2024-03-19T02:24:00,axn,27.81
2024-03-19T02:25:00,axn,27.52
2024-03-19T02:26:00,axn,27.90
2024-03-19T02:27:00,axn,27.51
2024-03-19T02:28:00,axn,27.84
2024-03-19T02:29:00,axn,27.64
2024-03-19T02:30:00,axn,27.70
2024-03-19T02:31:00,axn,27.52
2024-03-19T02:32:00,axn,27.61
2024-03-19T02:33:00,axn,27.60
2024-03-19T02:34:00,axn,27.68
2024-03-19T02:35:00,axn,28.02
2024-03-19T02:36:00,axn,27.83
2024-03-19T02:37:00,axn,27.76
2024-03-19T02:38:00,axn,28.13
2024-03-19T02:39:00,axn,27.84
2024-03-19T02:40:00,axn,27.82
2024-03-19T02:41:00,axn,27.79
2024-03-19T02:42:00,axn,27.82
2024-03-19T02:43:00,axn,27.82
2024-03-19T02:44:00,axn,27.85
2024-03-19T02:45:00,axn,28.28
2024-03-19T02:46:00,axn,27.88
2024-03-19T02:47:00,axn,27.69
2024-03-19T02:48:00,axn,27.48
2024-03-19T02:49:00,axn,27.77
2024-03-19T02:50:00,axn,27.66
2024-03-19T02:51:00,axn,27.85
2024-03-19T02:52:00,axn,27.62
2024-03-19T02:53:00,axn,27.90
2024-03-19T02:54:00,axn,27.49
2024-03-19T02:55:00,axn,27.86
2024-03-19T02:56:00,axn,27.52
2024-03-19T02:57:00,axn,27.42
2024-03-19T02:58:00,axn,27.78
2024-03-19T02:59:00,axn,27.63
2024-03-19T03:00:00,axn,27.84
2024-03-19T03:01:00,axn,27.75
2024-03-19T03:02:00,axn,27.64
2024-03-19T03:03:00,axn,30.70
2024-03-19T03:04:00,axn,27.93
2024-03-19T03:05:00,axn,28.02
2024-03-19T03:06:00,axn,27.84
2024-03-19T03:07:00,axn,27.67
2024-03-19T03:08:00,axn,27.68
2024-03-19T03:09:00,axn,27.42
2024-03-19T03:10:00,axn,27.49
2024-03-19T03:11:00,axn,27.60
2024-03-19T03:12:00,axn,27.68
2024-03-19T03:13:00,axn,27.59
2024-03-19T03:14:00,axn,27.81
2024-03-19T03:15:00,axn,27.61
2024-03-19T03:16:00,axn,27.85
2024-03-19T03:17:00,axn,27.79
2024-03-19T03:18:00,axn,27.65
2024-03-19T03:19:00,axn,27.68
2024-03-19T03:20:00,axn,27.56
2024-03-19T03:21:00,axn,28.04
2024-03-19T03:22:00,axn,27.54
2024-03-19T03:23:00,axn,27.69
2024-03-19T03:24:00,axn,27.87
2024-03-19T03:25:00,axn,27.64
2024-03-19T03:26:00,axn,28.13
2024-03-19T03:27:00,axn,27.79
2024-03-19T03:28:00,axn,27.95
2024-03-19T03:29:00,axn,27.84
2024-03-19T03:30:00,axn,27.36
2024-03-19T03:31:00,axn,27.42
2024-03-19T03:32:00,axn,27.50
2024-03-19T03:33:00,axn,27.42
2024-03-19T03:34:00,axn,27.29
2024-03-19T03:35:00,axn,27.27
2024-03-19T03:36:00,axn,32.95
2024-03-19T03:37:00,axn,27.54
2024-03-19T03:38:00,axn,28.02
2024-03-19T03:39:00,axn,27.82
2024-03-19T03:40:00,axn,27.59
2024-03-19T03:41:00,axn,27.46
2024-03-19T03:42:00,axn,27.42
2024-03-19T03:43:00,axn,27.42
2024-03-19T03:44:00,axn,27.39
2024-03-19T03:45:00,axn,27.24
2024-03-19T03:46:00,axn,27.76
2024-03-19T03:47:00,axn,27.42
2024-03-19T03:48:00,axn,27.48
2024-03-19T03:49:00,axn,27.61
2024-03-19T03:50:00,axn,27.49
2024-03-19T03:51:00,axn,27.57
2024-03-19T03:52:00,axn,27.43
2024-03-19T03:53:00,axn,27.52
2024-03-19T03:54:00,axn,27.38
2024-03-19T03:55:00,axn,27.51
2024-03-19T03:56:00,axn,28.14
2024-03-19T03:57:00,axn,27.84
2024-03-19T03:58:00,axn,27.46
2024-03-19T03:59:00,axn,27.50
2024-03-19T04:00:00,axn,27.48
2024-03-19T04:01:00,axn,27.87
2024-03-19T04:02:00,axn,27.41
2024-03-19T04:03:00,axn,27.36
2024-03-19T04:04:00,axn,27.32
2024-03-19T04:05:00,axn,27.33
2024-03-19T04:06:00,axn,27.90
2024-03-19T04:07:00,axn,27.51
2024-03-19T04:08:00,axn,27.84
2024-03-19T04:09:00,axn,27.56
2024-03-19T04:10:00,axn,27.61
2024-03-19T04:11:00,axn,27.40
2024-03-19T04:12:00,axn,27.17
2024-03-19T04:13:00,axn,27.07
2024-03-19T04:14:00,axn,27.10
2024-03-19T04:15:00,axn,27.45
2024-03-19T04:16:00,axn,27.54
2024-03-19T04:17:00,axn,27.62
2024-03-19T04:18:00,axn,27.70
2024-03-19T04:19:00,axn,27.45
2024-03-19T04:20:00,axn,27.47
2024-03-19T04:21:00,axn,27.40
2024-03-19T04:22:00,axn,27.55
2024-03-19T04:23:00,axn,27.39
2024-03-19T04:24:00,axn,27.35
2024-03-19T04:25:00,axn,27.45
2024-03-19T04:26:00,axn,27.92
2024-03-19T04:27:00,axn,28.48
2024-03-19T04:28:00,axn,28.29
2024-03-19T04:29:00,axn,38.86
2024-03-19T04:30:00,axn,28.23
2024-03-19T04:31:00,axn,34.07
2024-03-19T04:32:00,axn,34.19
2024-03-19T04:33:00,axn,34.41
2024-03-19T04:34:00,axn,33.91
2024-03-19T04:35:00,axn,28.27
2024-03-19T04:36:00,axn,28.39
2024-03-19T04:37:00,axn,28.30
2024-03-19T04:38:00,axn,28.13
2024-03-19T04:39:00,axn,28.22
2024-03-19T04:40:00,axn,28.19
2024-03-19T04:41:00,axn,28.35
2024-03-19T04:42:00,axn,27.97
2024-03-19T04:43:00,axn,27.93
2024-03-19T04:44:00,axn,27.95
2024-03-19T04:45:00,axn,28.48
2024-03-19T04:46:00,axn,28.17
2024-03-19T04:47:00,axn,28.11
2024-03-19T04:48:00,axn,28.21
2024-03-19T04:49:00,axn,28.21
2024-03-19T04:50:00,axn,28.56
2024-03-19T04:51:00,axn,28.44
2024-03-19T04:52:00,axn,27.90
2024-03-19T04:53:00,axn,27.83
2024-03-19T04:54:00,axn,28.21
2024-03-19T04:55:00,axn,27.76
2024-03-19T04:56:00,axn,27.66
2024-03-19T04:57:00,axn,28.13
2024-03-19T04:58:00,axn,28.70
2024-03-19T04:59:00,axn,28.86
2024-03-19T05:00:00,axn,29.06
2024-03-19T05:01:00,axn,24.64
2024-03-19T05:02:00,axn,29.31
2024-03-19T05:03:00,axn,29.17
2024-03-19T05:04:00,axn,29.23
2024-03-19T05:05:00,axn,29.49
2024-03-19T05:06:00,axn,29.25
2024-03-19T05:07:00,axn,29.14
2024-03-19T05:08:00,axn,29.11
2024-03-19T05:09:00,axn,29.35
2024-03-19T05:10:00,axn,28.88
2024-03-19T05:11:00,axn,28.74
2024-03-19T05:12:00,axn,24.39
2024-03-19T05:13:00,axn,24.43
2024-03-19T05:14:00,axn,24.49
2024-03-19T05:15:00,axn,24.57
2024-03-19T05:16:00,axn,24.47
2024-03-19T05:17:00,axn,24.38
2024-03-19T05:18:00,axn,24.30
2024-03-19T05:19:00,axn,24.32
2024-03-19T05:20:00,axn,24.24
2024-03-19T05:21:00,axn,24.44
2024-03-19T05:22:00,axn,24.37
2024-03-19T05:23:00,axn,25.35
2024-03-19T05:24:00,axn,24.47
2024-03-19T05:25:00,axn,24.46
2024-03-19T05:26:00,axn,24.36
2024-03-19T05:27:00,axn,24.54
2024-03-19T05:28:00,axn,24.41
2024-03-19T05:29:00,axn,24.57
2024-03-19T05:30:00,axn,28.96
2024-03-19T05:31:00,axn,25.74
2024-03-19T05:32:00,axn,25.73
2024-03-19T05:33:00,axn,25.69
2024-03-19T05:34:00,axn,25.57
2024-03-19T05:35:00,axn,25.69
2024-03-19T05:36:00,axn,25.79
2024-03-19T05:37:00,axn,26.15
2024-03-19T05:38:00,axn,25.79
2024-03-19T05:39:00,axn,25.71
2024-03-19T05:40:00,axn,25.43
2024-03-19T05:41:00,axn,25.60
2024-03-19T05:42:00,axn,25.43
2024-03-19T05:43:00,axn,25.41
2024-03-19T05:44:00,axn,25.48
2024-03-19T05:45:00,axn,25.25
2024-03-19T05:46:00,axn,25.43
2024-03-19T05:47:00,axn,28.48
2024-03-19T05:48:00,axn,26.34
2024-03-19T05:49:00,axn,26.14
2024-03-19T05:50:00,axn,26.41
2024-03-19T05:51:00,axn,28.23
2024-03-19T05:52:00,axn,28.18
2024-03-19T05:53:00,axn,28.87
2024-03-19T05:54:00,axn,28.73
2024-03-19T05:55:00,axn,28.66
2024-03-19T05:56:00,axn,28.84
2024-03-19T05:57:00,axn,40.13
2024-03-19T05:58:00,axn,33.34
2024-03-19T05:59:00,axn,29.06
2024-03-19T06:00:00,axn,29.08
2024-03-19T06:01:00,axn,29.37
2024-03-19T06:02:00,axn,29.02
2024-03-19T06:03:00,axn,28.72
2024-03-19T06:04:00,axn,28.38
2024-03-19T06:05:00,axn,28.61
2024-03-19T06:06:00,axn,28.48
2024-03-19T06:07:00,axn,28.35
2024-03-19T06:08:00,axn,28.68
2024-03-19T06:09:00,axn,29.25
2024-03-19T06:10:00,axn,28.49
2024-03-19T06:11:00,axn,28.46
2024-03-19T06:12:00,axn,28.41
2024-03-19T06:13:00,axn,28.32
2024-03-19T06:14:00,axn,28.22
2024-03-19T06:15:00,axn,28.28
2024-03-19T06:16:00,axn,28.13
2024-03-19T06:17:00,axn,28.11
2024-03-19T06:18:00,axn,27.98
2024-03-19T06:19:00,axn,28.29
2024-03-19T06:20:00,axn,28.09
2024-03-19T06:21:00,axn,27.73
2024-03-19T06:22:00,axn,31.40
2024-03-19T06:23:00,axn,32.57
2024-03-19T06:24:00,axn,34.36
2024-03-19T06:25:00,axn,58.60
2024-03-19T06:26:00,axn,49.16
2024-03-19T06:27:00,axn,47.83
2024-03-19T06:28:00,axn,52.11
2024-03-19T06:29:00,axn,48.47
2024-03-19T06:30:00,axn,48.47
2024-03-19T06:31:00,axn,34.69
2024-03-19T06:32:00,axn,33.96
2024-03-19T06:33:00,axn,33.76
2024-03-19T06:34:00,axn,33.43
2024-03-19T06:35:00,axn,33.36
2024-03-19T06:36:00,axn,33.55
2024-03-19T06:37:00,axn,34.08
2024-03-19T06:38:00,axn,33.56
2024-03-19T06:39:00,axn,33.05
2024-03-19T06:40:00,axn,33.21
2024-03-19T06:41:00,axn,33.81
2024-03-19T06:42:00,axn,34.76
2024-03-19T06:43:00,axn,34.33
2024-03-19T06:44:00,axn,34.24
2024-03-19T06:45:00,axn,34.71
2024-03-19T06:46:00,axn,34.44
2024-03-19T06:47:00,axn,34.05
2024-03-19T06:48:00,axn,33.90
2024-03-19T06:49:00,axn,35.49
2024-03-19T06:50:00,axn,33.82
2024-03-19T06:51:00,axn,33.54
2024-03-19T06:52:00,axn,34.10
2024-03-19T06:53:00,axn,34.35
2024-03-19T06:54:00,axn,34.32
2024-03-19T06:55:00,axn,34.55
2024-03-19T06:56:00,axn,34.09
2024-03-19T06:57:00,axn,33.88
2024-03-19T06:58:00,axn,33.74
2024-03-19T06:59:00,axn,38.46
2024-03-19T07:00:00,axn,37.99
2024-03-19T07:01:00,axn,44.71
2024-03-19T07:02:00,axn,45.84
2024-03-19T07:03:00,axn,47.95
2024-03-19T07:04:00,axn,47.49
2024-03-19T07:05:00,axn,38.64
2024-03-19T07:06:00,axn,36.87
2024-03-19T07:07:00,axn,36.86
2024-03-19T07:08:00,axn,38.37
2024-03-19T07:09:00,axn,37.76
2024-03-19T07:10:00,axn,36.80
2024-03-19T07:11:00,axn,36.99
2024-03-19T07:12:00,axn,38.82
2024-03-19T07:13:00,axn,38.07
2024-03-19T07:14:00,axn,39.52
2024-03-19T07:15:00,axn,37.60
2024-03-19T07:16:00,axn,38.98
2024-03-19T07:17:00,axn,37.75
2024-03-19T07:18:00,axn,38.19
2024-03-19T07:19:00,axn,38.32
2024-03-19T07:20:00,axn,38.81
2024-03-19T07:21:00,axn,38.71
2024-03-19T07:22:00,axn,39.19
2024-03-19T07:23:00,axn,38.60
2024-03-19T07:24:00,axn,40.38
2024-03-19T07:25:00,axn,38.95
2024-03-19T07:26:00,axn,38.93
2024-03-19T07:27:00,axn,39.94
2024-03-19T07:28:00,axn,40.91
2024-03-19T07:29:00,axn,41.37
2024-03-19T07:30:00,axn,43.47
2024-03-19T07:31:00,axn,39.81
2024-03-19T07:32:00,axn,41.25
2024-03-19T07:33:00,axn,41.64
2024-03-19T07:34:00,axn,41.23
2024-03-19T07:35:00,axn,41.55
2024-03-19T07:36:00,axn,41.35
2024-03-19T07:37:00,axn,39.16
2024-03-19T07:38:00,axn,41.88
2024-03-19T07:39:00,axn,39.87
2024-03-19T07:40:00,axn,39.20
2024-03-19T07:41:00,axn,41.36
2024-03-19T07:42:00,axn,39.53
2024-03-19T07:43:00,axn,42.47
2024-03-19T07:44:00,axn,41.57
2024-03-19T07:45:00,axn,41.62
2024-03-19T07:46:00,axn,42.22
2024-03-19T07:47:00,axn,51.10
2024-03-19T07:48:00,axn,41.25
2024-03-19T07:49:00,axn,39.60
2024-03-19T07:50:00,axn,39.69
2024-03-19T07:51:00,axn,40.82
2024-03-19T07:52:00,axn,39.77
2024-03-19T07:53:00,axn,39.45
2024-03-19T07:54:00,axn,39.28
2024-03-19T07:55:00,axn,39.19
2024-03-19T07:56:00,axn,39.24
2024-03-19T07:57:00,axn,39.17
2024-03-19T07:58:00,axn,39.21
2024-03-19T07:59:00,axn,46.11
2024-03-19T08:00:00,axn,46.64
2024-03-19T08:01:00,axn,40.82
2024-03-19T08:02:00,axn,44.61
2024-03-19T08:03:00,axn,46.78
2024-03-19T08:04:00,axn,47.45
2024-03-19T08:05:00,axn,46.67
2024-03-19T08:06:00,axn,47.61
2024-03-19T08:07:00,axn,45.85
2024-03-19T08:08:00,axn,50.08
2024-03-19T08:09:00,axn,47.06
2024-03-19T08:10:00,axn,47.31
2024-03-19T08:11:00,axn,46.32
2024-03-19T08:12:00,axn,45.21
2024-03-19T08:13:00,axn,45.74
2024-03-19T08:14:00,axn,47.28
2024-03-19T08:15:00,axn,46.88
2024-03-19T08:16:00,axn,46.79
2024-03-19T08:17:00,axn,45.45
2024-03-19T08:18:00,axn,46.60
2024-03-19T08:19:00,axn,46.44
2024-03-19T08:20:00,axn,46.90
2024-03-19T08:21:00,axn,47.36
2024-03-19T08:22:00,axn,47.51
2024-03-19T08:23:00,axn,47.17
2024-03-19T08:24:00,axn,46.32
2024-03-19T08:25:00,axn,46.55
2024-03-19T08:26:00,axn,45.18
2024-03-19T08:27:00,axn,46.80
2024-03-19T08:28:00,axn,46.19
2024-03-19T08:29:00,axn,49.75
2024-03-19T08:30:00,axn,49.26
2024-03-19T08:31:00,axn,46.48
2024-03-19T08:32:00,axn,47.40
2024-03-19T08:33:00,axn,44.50
2024-03-19T08:34:00,axn,46.97
2024-03-19T08:35:00,axn,47.70
2024-03-19T08:36:00,axn,45.49
2024-03-19T08:37:00,axn,45.26
2024-03-19T08:38:00,axn,46.26
2024-03-19T08:39:00,axn,44.02
2024-03-19T08:40:00,axn,43.77
2024-03-19T08:41:00,axn,43.93
2024-03-19T08:42:00,axn,44.07
2024-03-19T08:43:00,axn,44.11
2024-03-19T08:44:00,axn,44.97
2024-03-19T08:45:00,axn,44.00
2024-03-19T08:46:00,axn,44.05
2024-03-19T08:47:00,axn,45.48
2024-03-19T08:48:00,axn,44.68
2024-03-19T08:49:00,axn,45.11
2024-03-19T08:50:00,axn,45.85
2024-03-19T08:51:00,axn,45.30
2024-03-19T08:52:00,axn,45.83
2024-03-19T08:53:00,axn,46.46
2024-03-19T08:54:00,axn,44.59
2024-03-19T08:55:00,axn,45.76
2024-03-19T08:56:00,axn,46.24
2024-03-19T08:57:00,axn,46.75
2024-03-19T08:58:00,axn,47.44
2024-03-19T08:59:00,axn,46.86
2024-03-19T09:00:00,axn,51.44
2024-03-19T09:01:00,axn,45.89
2024-03-19T09:02:00,axn,46.33
2024-03-19T09:03:00,axn,46.80
2024-03-19T09:04:00,axn,47.39
2024-03-19T09:05:00,axn,47.02
2024-03-19T09:06:00,axn,46.68
2024-03-19T09:07:00,axn,47.09
2024-03-19T09:08:00,axn,46.12
2024-03-19T09:09:00,axn,60.85
2024-03-19T09:10:00,axn,61.92
2024-03-19T09:11:00,axn,60.28
2024-03-19T09:12:00,axn,60.66
2024-03-19T09:13:00,axn,60.32
2024-03-19T09:14:00,axn,60.89
2024-03-19T09:15:00,axn,46.69
2024-03-19T09:16:00,axn,44.61
2024-03-19T09:17:00,axn,47.06
2024-03-19T09:18:00,axn,47.14
2024-03-19T09:19:00,axn,45.74
2024-03-19T09:20:00,axn,46.57
2024-03-19T09:21:00,axn,44.98
2024-03-19T09:22:00,axn,46.64
2024-03-19T09:23:00,axn,46.55
2024-03-19T09:24:00,axn,44.51
2024-03-19T09:25:00,axn,46.65
2024-03-19T09:26:00,axn,45.22
2024-03-19T09:27:00,axn,47.18
2024-03-19T09:28:00,axn,46.37
2024-03-19T09:29:00,axn,46.28
2024-03-19T09:30:00,axn,49.43
2024-03-19T09:31:00,axn,46.31
2024-03-19T09:32:00,axn,44.34
2024-03-19T09:33:00,axn,44.68
2024-03-19T09:34:00,axn,46.57
2024-03-19T09:35:00,axn,44.79
2024-03-19T09:36:00,axn,44.38
2024-03-19T09:37:00,axn,44.34
2024-03-19T09:38:00,axn,44.40
2024-03-19T09:39:00,axn,44.25
2024-03-19T09:40:00,axn,44.20
2024-03-19T09:41:00,axn,44.11
2024-03-19T09:42:00,axn,44.28
2024-03-19T09:43:00,axn,44.45
2024-03-19T09:44:00,axn,44.55
2024-03-19T09:45:00,axn,44.60
2024-03-19T09:46:00,axn,47.40
2024-03-19T09:47:00,axn,46.41
2024-03-19T09:48:00,axn,45.38
2024-03-19T09:49:00,axn,45.98
2024-03-19T09:50:00,axn,44.59
2024-03-19T09:51:00,axn,46.65
2024-03-19T09:52:00,axn,46.85
2024-03-19T09:53:00,axn,46.76
2024-03-19T09:54:00,axn,45.92
2024-03-19T09:55:00,axn,45.62
2024-03-19T09:56:00,axn,50.99
2024-03-19T09:57:00,axn,49.31
2024-03-19T09:58:00,axn,45.51
2024-03-19T09:59:00,axn,45.11
2024-03-19T10:00:00,axn,47.18
2024-03-19T10:01:00,axn,47.37
2024-03-19T10:02:00,axn,47.59
2024-03-19T10:03:00,axn,46.92
2024-03-19T10:04:00,axn,46.80
2024-03-19T10:05:00,axn,45.62
2024-03-19T10:06:00,axn,46.60
2024-03-19T10:07:00,axn,47.11
2024-03-19T10:08:00,axn,47.57
2024-03-19T10:09:00,axn,46.30
2024-03-19T10:10:00,axn,46.33
2024-03-19T10:11:00,axn,47.48
2024-03-19T10:12:00,axn,45.97
2024-03-19T10:13:00,axn,45.23
2024-03-19T10:14:00,axn,44.48
2024-03-19T10:15:00,axn,44.48
2024-03-19T10:16:00,axn,44.79
2024-03-19T10:17:00,axn,45.24
2024-03-19T10:18:00,axn,44.75
2024-03-19T10:19:00,axn,44.61
2024-03-19T10:20:00,axn,45.89
2024-03-19T10:21:00,axn,46.73
2024-03-19T10:22:00,axn,46.72
2024-03-19T10:23:00,axn,51.30
2024-03-19T10:24:00,axn,47.13
2024-03-19T10:25:00,axn,46.32
2024-03-19T10:26:00,axn,46.42
2024-03-19T10:27:00,axn,45.01
2024-03-19T10:28:00,axn,44.73
2024-03-19T10:29:00,axn,44.76
2024-03-19T10:30:00,axn,46.21
2024-03-19T10:31:00,axn,46.82
2024-03-19T10:32:00,axn,44.85
2024-03-19T10:33:00,axn,46.88
2024-03-19T10:34:00,axn,47.31
2024-03-19T10:35:00,axn,44.66
2024-03-19T10:36:00,axn,45.02
2024-03-19T10:37:00,axn,45.16
2024-03-19T10:38:00,axn,47.34
2024-03-19T10:39:00,axn,47.51
2024-03-19T10:40:00,axn,47.52
2024-03-19T10:41:00,axn,45.09
2024-03-19T10:42:00,axn,46.83
2024-03-19T10:43:00,axn,47.30
2024-03-19T10:44:00,axn,46.80
2024-03-19T10:45:00,axn,47.24
2024-03-19T10:46:00,axn,46.41
2024-03-19T10:47:00,axn,51.77
2024-03-19T10:48:00,axn,48.66
2024-03-19T10:49:00,axn,45.17
2024-03-19T10:50:00,axn,45.30
2024-03-19T10:51:00,axn,45.89
2024-03-19T10:52:00,axn,44.45
2024-03-19T10:53:00,axn,49.41
2024-03-19T10:54:00,axn,45.01
2024-03-19T10:55:00,axn,44.84
2024-03-19T10:56:00,axn,46.31
2024-03-19T10:57:00,axn,44.18
2024-03-19T10:58:00,axn,46.76
2024-03-19T10:59:00,axn,43.95
2024-03-19T11:00:00,axn,43.85
2024-03-19T11:01:00,axn,44.23
2024-03-19T11:02:00,axn,44.18
2024-03-19T11:03:00,axn,46.37
2024-03-19T11:04:00,axn,46.72
2024-03-19T11:05:00,axn,46.79
2024-03-19T11:06:00,axn,44.86
2024-03-19T11:07:00,axn,45.55
2024-03-19T11:08:00,axn,45.64
2024-03-19T11:09:00,axn,47.87
2024-03-19T11:10:00,axn,57.27
2024-03-19T11:11:00,axn,55.62
2024-03-19T11:12:00,axn,55.60
2024-03-19T11:13:00,axn,57.13
2024-03-19T11:14:00,axn,46.45
2024-03-19T11:15:00,axn,50.47
2024-03-19T11:16:00,axn,50.13
2024-03-19T11:17:00,axn,50.60
2024-03-19T11:18:00,axn,47.07
2024-03-19T11:19:00,axn,46.72
2024-03-19T11:20:00,axn,46.44
2024-03-19T11:21:00,axn,46.41
2024-03-19T11:22:00,axn,44.93
2024-03-19T11:23:00,axn,46.77
2024-03-19T11:24:00,axn,50.55
2024-03-19T11:25:00,axn,46.44
2024-03-19T11:26:00,axn,46.13
2024-03-19T11:27:00,axn,45.45
2024-03-19T11:28:00,axn,45.27
2024-03-19T11:29:00,axn,46.38
2024-03-19T11:30:00,axn,46.84
2024-03-19T11:31:00,axn,44.80
2024-03-19T11:32:00,axn,45.15
2024-03-19T11:33:00,axn,46.97
2024-03-19T11:34:00,axn,45.40
2024-03-19T11:35:00,axn,44.18
2024-03-19T11:36:00,axn,44.41
2024-03-19T11:37:00,axn,44.37
2024-03-19T11:38:00,axn,45.52
2024-03-19T11:39:00,axn,44.18
2024-03-19T11:40:00,axn,44.06
2024-03-19T11:41:00,axn,44.32
2024-03-19T11:42:00,axn,46.06
2024-03-19T11:43:00,axn,45.32
2024-03-19T11:44:00,axn,44.01
2024-03-19T11:45:00,axn,44.35
2024-03-19T11:46:00,axn,44.18
2024-03-19T11:47:00,axn,46.00
2024-03-19T11:48:00,axn,44.53
2024-03-19T11:49:00,axn,44.08
2024-03-19T11:50:00,axn,44.20
2024-03-19T11:51:00,axn,43.79
2024-03-19T11:52:00,axn,48.68
2024-03-19T11:53:00,axn,46.02
2024-03-19T11:54:00,axn,45.60
2024-03-19T11:55:00,axn,46.23
2024-03-19T11:56:00,axn,45.80
2024-03-19T11:57:00,axn,45.67
2024-03-19T11:58:00,axn,45.95
2024-03-19T11:59:00,axn,44.95
2024-03-19T12:00:00,axn,46.15
2024-03-19T12:01:00,axn,46.27
2024-03-19T12:02:00,axn,45.55
2024-03-19T12:03:00,axn,45.73
2024-03-19T12:04:00,axn,45.83
2024-03-19T12:05:00,axn,44.13
2024-03-19T12:06:00,axn,44.51
2024-03-19T12:07:00,axn,45.75
2024-03-19T12:08:00,axn,45.93
2024-03-19T12:09:00,axn,45.52
2024-03-19T12:10:00,axn,43.89
2024-03-19T12:11:00,axn,43.79
2024-03-19T12:12:00,axn,43.68
2024-03-19T12:13:00,axn,43.95
2024-03-19T12:14:00,axn,43.98
2024-03-19T12:15:00,axn,43.78
2024-03-19T12:16:00,axn,44.07
2024-03-19T12:17:00,axn,45.11
2024-03-19T12:18:00,axn,44.09
2024-03-19T12:19:00,axn,44.02
2024-03-19T12:20:00,axn,44.32
2024-03-19T12:21:00,axn,51.62
2024-03-19T12:22:00,axn,50.92
2024-03-19T12:23:00,axn,46.41
2024-03-19T12:24:00,axn,43.85
2024-03-19T12:25:00,axn,46.93
2024-03-19T12:26:00,axn,44.88
2024-03-19T12:27:00,axn,46.80
2024-03-19T12:28:00,axn,45.87
2024-03-19T12:29:00,axn,46.79
2024-03-19T12:30:00,axn,46.26
2024-03-19T12:31:00,axn,44.24
2024-03-19T12:32:00,axn,46.52
2024-03-19T12:33:00,axn,43.98
2024-03-19T12:34:00,axn,44.74
2024-03-19T12:35:00,axn,45.04
2024-03-19T12:36:00,axn,44.44
2024-03-19T12:37:00,axn,44.59
2024-03-19T12:38:00,axn,45.86
2024-03-19T12:39:00,axn,46.33
2024-03-19T12:40:00,axn,45.09
2024-03-19T12:41:00,axn,46.41
2024-03-19T12:42:00,axn,47.12
2024-03-19T12:43:00,axn,45.30
2024-03-19T12:44:00,axn,46.68
2024-03-19T12:45:00,axn,44.66
2024-03-19T12:46:00,axn,47.41
2024-03-19T12:47:00,axn,46.19
2024-03-19T12:48:00,axn,44.64
2024-03-19T12:49:00,axn,45.82
2024-03-19T12:50:00,axn,49.36
2024-03-19T12:51:00,axn,48.75
2024-03-19T12:52:00,axn,44.94
2024-03-19T12:53:00,axn,44.83
2024-03-19T12:54:00,axn,46.65
2024-03-19T12:55:00,axn,45.38
2024-03-19T12:56:00,axn,44.27
2024-03-19T12:57:00,axn,45.36
2024-03-19T12:58:00,axn,46.61
2024-03-19T12:59:00,axn,47.51
2024-03-19T13:00:00,axn,44.98
2024-03-19T13:01:00,axn,45.13
2024-03-19T13:02:00,axn,46.63
2024-03-19T13:03:00,axn,46.47
2024-03-19T13:04:00,axn,43.73
2024-03-19T13:05:00,axn,45.18
2024-03-19T13:06:00,axn,42.46
2024-03-19T13:07:00,axn,43.64
2024-03-19T13:08:00,axn,43.86
2024-03-19T13:09:00,axn,43.04
2024-03-19T13:10:00,axn,43.39
2024-03-19T13:11:00,axn,44.11
2024-03-19T13:12:00,axn,42.14
2024-03-19T13:13:00,axn,45.52
2024-03-19T13:14:00,axn,45.47
2024-03-19T13:15:00,axn,44.43
2024-03-19T13:16:00,axn,45.16
2024-03-19T13:17:00,axn,44.77
2024-03-19T13:18:00,axn,44.62